📊 Raw Sensor Data

Showing records 45351 to 45375 of 85,051 total

ID Distance (ft) Battery V Battery A Int Temp (°F) Int Humid (%) Ext Temp (°F) Solar V RSSI SNR Time Stamp
39713 15.7 3.95 -5 63 43 64 0.00 -68 8 05/04/2025 11:45 PM
39712 15.7 3.95 -35 63 44 64 0.00 -70 8 05/04/2025 11:30 PM
39711 15.7 4.01 -5 64 44 64 0.00 -69 8 05/04/2025 11:15 PM
39710 15.7 4.01 -5 64 44 64 0.00 -69 8 05/04/2025 11:00 PM
39709 15.7 3.96 -5 65 44 66 0.00 -68 8 05/04/2025 10:45 PM
39708 15.7 3.96 -5 66 44 67 0.00 -69 8 05/04/2025 10:30 PM
39707 15.7 3.96 -32 66 44 67 0.00 -68 8 05/04/2025 10:15 PM
39706 15.6 4.02 -5 67 44 67 0.10 -70 8 05/04/2025 10:00 PM
39705 15.6 3.96 -5 67 44 68 0.00 -69 8 05/04/2025 09:45 PM
39704 15.7 3.96 -5 68 45 69 0.00 -70 8 05/04/2025 09:30 PM
39703 15.7 3.96 -5 68 45 69 0.00 -69 8 05/04/2025 09:15 PM
39702 15.6 3.96 -5 69 45 70 0.00 -71 7 05/04/2025 09:00 PM
39701 15.6 3.96 -5 69 46 70 0.00 -70 8 05/04/2025 08:45 PM
39700 15.6 4.02 -5 70 47 71 0.00 -69 8 05/04/2025 08:30 PM
39699 15.6 3.96 -5 72 47 72 1.20 -69 8 05/04/2025 08:15 PM
39698 15.6 3.95 -10 74 48 72 4.20 -71 8 05/04/2025 08:00 PM
39697 15.6 4.03 0 76 47 73 4.50 -69 8 05/04/2025 07:45 PM
39696 15.7 4.04 0 78 47 75 4.50 -71 8 05/04/2025 07:30 PM
39695 -- 4.00 8 80 46 76 4.50 -69 8 05/04/2025 07:15 PM
39694 15.7 4.01 14 82 46 77 4.60 -70 8 05/04/2025 07:00 PM
39693 15.7 4.10 11 83 45 78 4.50 -71 8 05/04/2025 06:45 PM
39692 15.6 4.05 0 84 45 78 5.10 -69 8 05/04/2025 06:30 PM
39691 15.6 4.01 0 85 45 78 5.10 -69 7 05/04/2025 06:15 PM
39690 15.6 4.01 0 85 44 79 5.10 -70 8 05/04/2025 06:00 PM
39689 -- 4.01 0 85 44 79 5.10 -70 8 05/04/2025 05:45 PM